This is the latest recevied weather packets stored in our database for station/object WW5JC. If no packets are shown the sender has not sent any weather packets the latest 10 day(s).
| Time | Temp. | Humidity | Pressure | Rain* | Wind** | Luminosity | Snow |
|---|---|---|---|---|---|---|---|
| 1777220176 | 23.89° C | 96% | 1011.3 hPa | 0 mm | - | 216 W/m² | - |
| 1777219873 | 23.89° C | 97% | 1011.2 hPa | 0 mm | - | 195 W/m² | - |
| 1777219570 | 23.33° C | 97% | 1011.3 hPa | 0 mm | - | 170 W/m² | - |
| 1777219267 | 23.33° C | 97% | 1011.2 hPa | 0 mm | - | 170 W/m² | - |
| 1777218962 | 23.33° C | 98% | 1011.2 hPa | 0 mm | - | 123 W/m² | - |
| 1777218659 | 23.33° C | 98% | 1011.1 hPa | 0 mm | - | 136 W/m² | - |
| 1777218354 | 22.78° C | 99% | 1011.1 hPa | 0 mm | - | 145 W/m² | - |
| 1777218051 | 22.22° C | 99% | 1011.1 hPa | 0 mm | - | 148 W/m² | - |
| 1777217746 | 21.67° C | 99% | 1011.3 hPa | 0 mm | - | 99 W/m² | - |
| 1777217442 | 21.67° C | 99% | 1011.2 hPa | 0 mm | - | 100 W/m² | - |
| 1777217139 | 21.67° C | 99% | 1010.8 hPa | 0 mm | - | 111 W/m² | - |
| 1777216835 | 21.11° C | 99% | 1010.7 hPa | 0 mm | - | 71 W/m² | - |
| 1777216532 | 21.11° C | 99% | 1010.7 hPa | 0 mm | - | 79 W/m² | - |
| 1777216228 | 21.11° C | 99% | 1010.8 hPa | 0 mm | - | 90 W/m² | - |
| 1777215920 | 21.11° C | 99% | 1010.6 hPa | 0 mm | - | 78 W/m² | - |
| 1777215611 | 21.11° C | 99% | 1010.4 hPa | 0 mm | - | 76 W/m² | - |
| 1777215307 | 21.11° C | 99% | 1010.3 hPa | 0 mm | - | 69 W/m² | - |
| 1777215004 | 20.56° C | 99% | 1010.5 hPa | 0 mm | - | 69 W/m² | - |
| 1777214702 | 21.11° C | 99% | 1010.3 hPa | 0 mm | - | 67 W/m² | - |
| 1777214396 | 20.56° C | 99% | 1010.3 hPa | 0 mm | - | 84 W/m² | - |
| 1777214096 | 20.56° C | 99% | 1010.4 hPa | 0 mm | - | 55 W/m² | - |
| 1777213791 | 20.56° C | 99% | 1010.5 hPa | 0 mm | - | 56 W/m² | - |
| 1777213487 | 20.56° C | 99% | 1010.5 hPa | 0 mm | - | 62 W/m² | - |
| 1777213185 | 20.56° C | 99% | 1010.3 hPa | 0 mm | - | 59 W/m² | - |
| 1777212881 | 20.56° C | 99% | 1010 hPa | 0 mm | - | 64 W/m² | - |
* Rain latest hour (hover to see other rain measurements)
** Current wind speed in m/s (hover to see current wind gust speed)